Location: Banios
(43.0451°N, 0.2335°E)
Time: 12:51:39
(UTC+00:00)

Explorer 11/Cluster Stage 4 - All Passes

Search period start: 13 May 2021 00:00
Search period end: 23 May 2021 00:00
Orbit: 467 x 1257 km, 28.8° (Epoch: 12 May)

Date Brightness Start Highest point End Pass type
(mag) Time Alt. Az. Time Alt. Az. Time Alt. Az.
13 May - 00:35:13 10° WSW 00:39:58 18° SSW 00:44:16 10° SSE night (unlit)
13 May - 18:59:58 10° S 19:04:16 15° SSE 19:08:36 10° ESE daylight
13 May - 20:45:57 10° SW 20:52:24 26° S 20:58:37 10° ESE visible
13 May - 22:34:11 10° WSW 22:40:42 27° S 22:46:41 10° SE visible
14 May - 00:23:59 10° WSW 00:28:41 17° SSW 00:32:59 10° SSE night (unlit)
14 May - 18:48:12 10° SSW 18:52:54 17° SSE 18:57:42 10° ESE daylight
14 May - 20:34:30 10° SW 20:41:03 27° S 20:47:29 10° ESE visible
14 May - 22:22:49 10° WSW 22:29:23 27° S 22:35:30 10° SE visible
15 May - 00:12:48 10° WSW 00:17:22 17° SSW 00:21:35 10° SSE visible
15 May - 18:36:33 10° SSW 18:41:32 18° SSE 18:46:42 10° ESE daylight
15 May - 20:23:06 10° SW 20:29:42 28° S 20:36:17 10° ESE visible
15 May - 22:11:31 10° WSW 22:18:03 27° S 22:24:15 10° SE visible
16 May - 00:01:42 10° WSW 00:06:02 16° SSW 00:10:07 10° S visible
16 May - 18:25:02 10° SSW 18:30:11 19° SSE 18:35:36 10° ESE daylight
16 May - 20:11:46 10° SW 20:18:21 28° S 20:25:02 10° ESE visible
16 May - 22:00:14 10° WSW 22:06:42 26° S 22:12:56 10° SE visible
16 May - 23:50:41 10° WSW 23:54:41 15° SSW 23:58:30 10° S visible
17 May - 18:13:36 10° SSW 18:18:50 21° SSE 18:24:25 10° ESE daylight
17 May - 20:00:29 10° SW 20:07:00 29° S 20:13:45 10° ESE visible
17 May - 21:49:01 10° WSW 21:55:21 25° SSW 22:01:34 10° SE visible
17 May - 23:39:49 10° SW 23:43:20 13° SSW 23:46:43 10° S visible
18 May - 18:02:14 10° SSW 18:07:30 21° SSE 18:13:11 10° ESE daylight
18 May - 19:49:15 10° SW 19:55:40 28° S 20:02:25 10° ESE visible
18 May - 21:37:50 10° WSW 21:44:00 24° SSW 21:50:07 10° SE visible
18 May - 23:29:11 10° SW 23:31:58 12° SSW 23:34:41 10° S visible
19 May - 17:50:57 10° SSW 17:56:10 22° SSE 18:01:55 10° ESE daylight
19 May - 19:38:04 10° SW 19:44:20 28° S 19:51:02 10° SE visible
19 May - 21:26:44 10° WSW 21:32:39 23° SSW 21:38:37 10° SSE visible
19 May - 23:19:05 10° SW 23:20:36 11° SSW 23:22:05 10° SSW visible
20 May - 15:56:33 10° SSE 15:57:16 10° SSE 15:58:00 10° SE daylight
20 May - 17:39:45 10° SW 17:44:52 22° SSE 17:50:35 10° ESE daylight
20 May - 19:26:57 10° SW 19:33:01 27° S 19:39:36 10° SE daylight
20 May - 21:15:41 10° WSW 21:21:17 21° SSW 21:27:02 10° SSE visible
21 May - 15:44:29 10° SSE 15:46:00 11° SSE 15:47:35 10° SE daylight
21 May - 17:28:35 10° SW 17:33:35 23° SSE 17:39:14 10° ESE daylight
21 May - 19:15:52 10° WSW 19:21:43 26° S 19:28:08 10° SE daylight
21 May - 21:04:44 10° WSW 21:09:57 19° SSW 21:15:20 10° SSE visible
22 May - 15:32:51 10° S 15:34:44 11° SSE 15:36:43 10° SE daylight
22 May - 17:17:29 10° SW 17:22:20 23° S 17:27:50 10° ESE daylight
22 May - 19:04:51 10° WSW 19:10:25 25° S 19:16:37 10° SE daylight
22 May - 20:53:53 10° WSW 20:58:36 17° SSW 21:03:33 10° SSE visible
